Vientiane, Lao Peoples Republic

4:54 AM +07 on May 27, 2017 (GMT +0700)
Wattay International

Weather History for VLVT - March, 2013

Change the Weather History Date:

Friday, March 1, 2013

  Actual Average Record
Temperature  
Mean Temperature 88 °F -  
Max Temperature 99 °F 81 °F 99 °F (2013)
Min Temperature 76 °F 71 °F 60 °F (2016)
Cooling Degree Days 22    
Growing Degree Days 38 (Base 50)    
Moisture  
Dew Point 73 °F    
Average Humidity 61    
Maximum Humidity 83    
Minimum Humidity 44    
Precipitation  
Precipitation 0.00 in 0.05 in - ()
Sea Level Pressure  
Sea Level Pressure 29.76 in    
Wind  
Wind Speed 2 mph ()    
Max Wind Speed 2 mph    
Max Gust Speed -    
Visibility 3.0 miles    
Events      
Averages and records for this station are not official NWS values.
T = Trace of Precipitation, MM = Missing Value Source: Averaged Metar Reports

Daily Weather History Graph

Daily Weather History Graph

Search for Another Location

Airport or City:

Trip Planner

Search our weather history database for the weather conditions in past years. The results will help you decide how hot, cold, wet, or windy it might be!

Date:

Astronomy

Mar. 01, 2013 Rise Set
Actual Time 6:28 AM +07 6:15 PM +07
Civil Twilight 6:06 AM +07 6:37 PM +07
Nautical Twilight 5:41 AM +07 7:03 PM +07
Astronomical Twilight 5:16 AM +07 7:28 PM +07
Moon 9:31 PM +07 (3/1) 8:32 AM +07 (3/1)
Length of Visible Light 12h 31m
Length of Day
11h 47m
Waning Gibbous, 87% of the Moon is Illuminated
Mar 1
Waning Gibbous
Mar 5
Last Quarter
Mar 12
New
Mar 20
First Quarter
Mar 27
Full

Hourly Weather History & Observations

Time (+07) Temp. Heat Index Dew Point Humidity Pressure Visibility Wind Dir Wind Speed Gust Speed Precip Events Conditions
7:00 AM 77 °F - 72 °F 81% 29.75 in 2 mi North 2.2 mph - -   Mist
7:00 AM 77.0 °F - 71.6 °F 83% 29.80 in 2.5 mi North 2.3 mph - N/A   Partly Cloudy
7:30 AM 77.0 °F - 71.6 °F 83% 29.80 in 2.5 mi NNW 2.3 mph - N/A   Partly Cloudy
8:00 AM 78.8 °F - 71.6 °F 78% 29.80 in 2.5 mi WNW 2.3 mph - N/A   Mist
8:30 AM 78.8 °F - 71.6 °F 78% 29.80 in 2.5 mi NNW 2.3 mph - N/A   Mist
9:00 AM 78.8 °F - 71.6 °F 78% 29.83 in 3.1 mi NNW 2.3 mph - N/A   Unknown
9:30 AM 78.8 °F - 71.6 °F 78% 29.83 in 3.1 mi North 2.3 mph - N/A   Unknown
10:00 AM 84.2 °F 89.6 °F 71.6 °F 66% 29.83 in 3.1 mi North 2.3 mph - N/A   Unknown
10:30 AM 84.2 °F 89.6 °F 71.6 °F 66% 29.83 in 3.1 mi NNW 2.3 mph - N/A   Unknown
11:00 AM 87.8 °F 92.6 °F 69.8 °F 55% 29.83 in 4.3 mi WNW 2.3 mph - N/A   Unknown
11:30 AM 87.8 °F 92.6 °F 69.8 °F 55% 29.83 in 4.3 mi West 2.3 mph - N/A   Unknown
12:00 PM 89.6 °F 93.4 °F 68.0 °F 49% 29.80 in 4.3 mi South 2.3 mph - N/A   Unknown
1:00 PM 90 °F - 72 °F 47% 29.75 in 4 mi South 2.2 mph - -   Haze
1:00 PM 89.6 °F 96.2 °F 71.6 °F 55% 29.77 in 4.3 mi South 2.3 mph - N/A   Unknown
1:30 PM 89.6 °F 96.2 °F 71.6 °F 55% 29.77 in 4.3 mi SSE 2.3 mph - N/A   Unknown
2:00 PM 95.0 °F 107.4 °F 75.2 °F 53% 29.74 in 4.3 mi ESE 2.3 mph - N/A   Partly Cloudy
2:30 PM 95.0 °F 107.4 °F 75.2 °F 53% 29.74 in 4.3 mi South 2.3 mph - N/A   Unknown
3:00 PM 96.8 °F 107.3 °F 73.4 °F 47% 29.71 in 4.3 mi East 2.3 mph - N/A   Unknown
3:30 PM 96.8 °F 107.3 °F 73.4 °F 47% 29.71 in 4.3 mi ESE 2.3 mph - N/A   Unknown
4:00 PM 96.8 °F 107.3 °F 73.4 °F 47% 29.71 in 4.3 mi West 2.3 mph - N/A   Unknown
4:30 PM 98.6 °F 109.2 °F 73.4 °F 44% 29.71 in 4.3 mi WSW 2.3 mph - N/A   Unknown
5:00 PM 96.8 °F 105.1 °F 71.6 °F 44% 29.71 in 4.3 mi South 2.3 mph - N/A   Scattered Clouds
5:30 PM 96.8 °F 105.1 °F 71.6 °F 44% 29.71 in 4.3 mi South 2.3 mph - N/A   Scattered Clouds
6:00 PM 95.0 °F 107.4 °F 75.2 °F 53% 29.71 in 3.1 mi ESE 2.3 mph - N/A   Scattered Clouds
6:30 PM 95.0 °F 107.4 °F 75.2 °F 53% 29.71 in 1.9 mi South 2.3 mph - N/A   Scattered Clouds
7:00 PM 91 °F - 76 °F 53% 29.68 in 1 mi SE 2.2 mph - -   Mist
7:00 PM 91.4 °F 102.5 °F 75.2 °F 59% 29.71 in 1.2 mi SE 2.3 mph - N/A   Scattered Clouds
7:30 PM 91.4 °F 102.5 °F 75.2 °F 59% 29.71 in 1.2 mi South 2.3 mph - N/A   Scattered Clouds
8:00 PM 89.6 °F 102.2 °F 77.0 °F 66% 29.74 in 1.2 mi East 2.3 mph - N/A   Partly Cloudy
8:30 PM 89.6 °F 102.2 °F 77.0 °F 66% 29.74 in 1.2 mi North 2.3 mph - N/A   Partly Cloudy
9:00 PM 87.8 °F 99.7 °F 77.0 °F 70% 29.74 in 1.2 mi WNW 2.3 mph - N/A   Partly Cloudy
9:30 PM 87.8 °F 99.7 °F 77.0 °F 70% 29.77 in 1.2 mi West 2.3 mph - N/A   Scattered Clouds
10:00 PM 86.0 °F 96.9 °F 77.0 °F 74% 29.77 in 1.2 mi WNW 2.3 mph - N/A   Scattered Clouds